Regional Weather Roundup
Issued by NWS

Home | Current Version | Previous Version | Text Only | Print | Product List | Glossary On
Versions: 1 2 3 4 5 6 7 8 9 10 11 12 13 14 15 16 17 18 19 20 21 22 23 24 25 26 27 28 29 30 31 32 33 34 35 36 37 38 39 40 41 42 43 44 45 46 47 48 49 50
282
ASUS43 KMKX 230921
RWRWI

WISCONSIN REGIONAL WEATHER ROUNDUP
NATIONAL WEATHER SERVICE MILWAUKEE/SULLIVAN WI
400 AM CDT THU MAR 23 2017

NOTE: "FAIR" INDICATES FEW OR NO CLOUDS BELOW 12,000 FEET WITH NO
SIGNIFICANT WEATHER AND/OR OBSTRUCTIONS TO VISIBILITY.

WIZ001-002-006>008-014>016-023>028-231000-
NORTHWEST WISCONSIN

CITY           SKY/WX    TMP DP  RH WIND       PRES   REMARKS
SUPERIOR ARPT  CLOUDY    32  21  63 S3        30.26S
ASHLAND        FLURRIES  31  20  63 S6        30.30F WCI  25
HAYWARD        CLOUDY    33  18  53 S8        30.27F WCI  26
SIREN          LGT SNOW  29  27  90 SE9       30.26F WCI  21
CUMBERLAND     SNOW      28  25  86 SE10      30.27S VSB 1/2 WCI  19
RICE LAKE      SNOW      29  26  86 SE10      30.30R VSB 1/4 WCI  20
CHETEK         CLOUDY    33  17  53 S8        30.30R WCI  26
LADYSMITH      CLOUDY    32  20  61 SE10      30.31F WCI  24
EAU CLAIRE     LGT SNOW  32  21  64 SE8G22    30.29F WCI  25
MENOMONIE      CLOUDY    33  21  60 E9        30.28S WCI  26
NEW RICHMOND   CLOUDY    34  17  49 SE7       30.25S WCI  28
OSCEOLA        CLOUDY    35  19  51 SE9       30.26F WCI  28
$$

WIZ003>005-009-010-017-018-231000-
NORTH CENTRAL WISCONSIN

CITY           SKY/WX    TMP DP  RH WIND       PRES   REMARKS
MANITOWISH WTR CLOUDY    27  16  62 S8        30.29S WCI  19
ARBOR VITAE    CLOUDY    29  18  62 S9        30.30F WCI  21
WOODRUFF       CLOUDY    29  18  62 S9        30.30F WCI  21
RHINELANDER    CLOUDY    28  18  66 S7        30.33S WCI  21
EAGLE RIVER    CLOUDY    25  16  66 S5        30.32S WCI  20
LAND O LAKES   CLOUDY    27  15  61 S6        30.32F WCI  20
PHILLIPS       CLOUDY    28  19  69 S9        30.29F WCI  19
TOMAHAWK       CLOUDY    27  19  70 S3        30.33F
MEDFORD        CLOUDY    27  20  75 SE10      30.31F WCI  18
MERRILL        CLOUDY    27  20  74 S5        30.36R WCI  22
$$

WIZ029-030-035-036-043>047-231000-
CENTRAL WISCONSIN

CITY           SKY/WX    TMP DP  RH WIND       PRES   REMARKS
WAUSAU         CLOUDY    26  19  74 S9        30.35S WCI  17
MOSINEE        CLOUDY    27  21  80 SE8       30.36S WCI  18
MARSHFIELD     CLOUDY    28  19  69 S9        30.33F WCI  19
STEVENS POINT  CLOUDY    24  18  75 SE5       30.38S WCI  19
WAUPACA        CLOUDY    28  20  74 SE5       30.41S WCI  22
WAUTOMA        CLOUDY    26  20  77 E3        30.40F
WISC RAPIDS    CLOUDY    27  20  75 S7        30.38F WCI  19
CAMP DOUGLAS   CLOUDY    31  21  66 E8        30.35S WCI  23
$$

WIZ011>013-019>022-031-037>040-048>050-231000-
NORTHEAST WISCONSIN

CITY           SKY/WX    TMP DP  RH WIND       PRES   REMARKS
ANTIGO         CLOUDY    24  19  83 SE7       30.35F WCI  16
SHAWANO        CLOUDY    27  20  76 CALM      30.42F
OCONTO         CLOUDY    25  19  78 CALM      30.43F
STURGEON BAY   CLOUDY    26  20  77 S3        30.44S
GREEN BAY      CLOUDY    27  22  81 CALM      30.43F
MANITOWOC      CLOUDY    29  22  75 S8        30.44F WCI  21
APPLETON       CLOUDY    28  19  69 SE6       30.39F WCI  22
CLINTONVILLE   CLOUDY    27  21  80 SE3       30.40F
OSHKOSH        PTCLDY    25  19  78 S6        30.40F WCI  18
$$

WIZ032>034-041-042-053>061-231000-
SOUTHWEST WISCONSIN

CITY           SKY/WX    TMP DP  RH WIND       PRES   REMARKS
LA CROSSE      CLOUDY    37  22  54 SE13      30.31F WCI  29
SPARTA         CLOUDY    34  21  59 SE6       30.35S WCI  28
VIROQUA        CLOUDY    32  20  62 SE12      30.30F WCI  23
BOSCOBEL       CLOUDY    34  19  54 SE6       30.36F WCI  29
PRAIRIE DU CHI CLOUDY    37  17  45 SE6       30.34S WCI  32
PLATTEVILLE    CLOUDY    32  22  65 SE10      30.35F WCI  24
$$

WIZ056-057-062-063-064-067-068-231000-
SOUTH CENTRAL WISCONSIN

CITY           SKY/WX    TMP DP  RH WIND       PRES   REMARKS
REEDSBURG      CLOUDY    30  19  64 SE7       30.36F WCI  23
BARABOO/DELLS  CLOUDY    29  20  68 SE6       30.37S WCI  23
LONE ROCK      CLOUDY    32  18  56 SE9       30.37F WCI  24
MINERAL POINT  CLOUDY    32  21  64 SE13      30.34F WCI  22
MADISON        CLOUDY    28  19  69 SE7       30.38F WCI  21
MIDDLETON      CLOUDY    30  21  68 S7        30.39F WCI  24
WATERTOWN      CLOUDY    27  22  82 SE7       30.40F WCI  19
MONROE         CLOUDY    28  21  74 SE7       30.38S WCI  21
JANESVILLE     CLOUDY    32  23  69 SE7       30.39F WCI  26
$$

WIZ051-052-058>065-066-070>072-231000-
SOUTHEAST WISCONSIN

CITY           SKY/WX    TMP DP  RH WIND       PRES   REMARKS
MILWAUKEE      CLOUDY    27  20  75 CALM      30.43F
WAUKESHA       PTCLDY    25  19  80 E6        30.42F WCI  18
MILWAUKEE/TIMM PTCLDY    23  18  80 CALM      30.43F
RACINE         CLOUDY    33  22  63 S7        30.45S WCI  27
KENOSHA        CLOUDY    29  23  78 SE6       30.43S WCI  23
FOND DU LAC    CLOUDY    28  20  71 S8        30.41F WCI  20
SHEBOYGAN      CLOUDY    25  20  81 SW3       30.42F
WEST BEND      PTCLDY    21  21 100 CALM      30.41F
JUNEAU         CLOUDY    27  21  80 SE6       30.41S WCI  20
$$

LSZ147-162-231000-
LAKE SUPERIOR

STATION/POSITION TIME  TEMP    WIND        PRES    WAVE
                       AIR SEA DIR/SP/G            HT/PER
                 (UTC) (F)     (DEG/KT/KT) (MB)    (FT/S)
DEVILS ISLAND    0900   33     190/  8/ 12 1027.0R
PORT WING        0830   32     170/  7/ 13 1025.7S
SAXON HARBOR     0830   34     180/  5/  9 1025.7S
$$

LMZ867-665-643>646-231000-
LAKE MICHIGAN

STATION/POSITION TIME  TEMP    WIND        PRES    WAVE
                       AIR SEA DIR/SP/G            HT/PER
                 (UTC) (F)     (DEG/KT/KT) (MB)    (FT/S)
CHAMBERS ISLAND  0840   26     160/  2/  4 1030.1S
NORTHPORT PIER   0903   29     160/  2/  8 1030.5
SISTER BAY       0806   26     170/  5/  7   N/A
KEWAUNEE LAKESHO 0854   31     170/ 15/ 17 1029.9F
SHEBOYGAN LAKESH 0900   32     160/ 14/ 16 1031.0F
PORT WASHINGTON  0840   33     160/ 10/ 13 1031.5F
MILWAUKEE LAKESH 0850   34     150/ 12/ 13   N/A
KENOSHA   LAKESH 0900   35     160/ 18/ 20 1030.1
$$

TC  - TEMPERATURE IN CELSIUS
VSB - VISIBILITY IN STATUTE MILES
WCI - WIND CHILL INDEX
HX  - HEAT INDEX





USA.gov is the U.S. government's official web portal to all federal, state and local government web resources and services.